ONEWEB-0168

Last updated on Sun Apr 25 2021 00:02:03 GMT+0000 (Coordinated Universal Time)

1 48068U 21025AC 21114.58336806 -.01104665 00000-0 -60669-1 0 9997 2 48068 87.4099 339.3955 0008581 152.2156 21.8900 15.16894195 1758

Satellite not in orbit